QPF
0.00 0.00 0.00 0.00 0.00 0.00 0.00 0.00 0.00 0.00 0.00 0.00 0.00 0.00 0.01 0.01 0.01 0.01 0.00 0.00 0.01 0.02 0.03 0.03 0.03 0.03 0.03 0.04 0.04 0.05 0.06 0.05 0.05 0.05 0.06 0.07 0.07 0.06 0.07 0.07 0.10 0.11 0.09
0.00 0.00 0.00 0.00 0.00 0.00 0.00 0.00 0.00 0.00 0.00 0.00 0.00 0.00 0.00 0.00 0.01 0.01 0.01 0.01 0.01 0.01 0.02 0.03 0.05 0.04 0.05 0.06 0.06 0.08 0.06 0.05 0.05 0.06 0.07 0.07 0.08 0.08 0.07 0.07 0.08 0.09 0.10
0.01 0.01 0.00 0.00 0.00 0.00 0.00 0.00 0.00 0.00 0.00 0.00 0.00 0.00 0.00 0.00 0.01 0.02 0.02 0.01 0.01 0.02 0.02 0.02 0.04 0.05 0.05 0.05 0.06 0.06 0.06 0.05 0.05 0.05 0.07 0.08 0.10 0.11 0.10 0.09 0.08 0.08 0.10
0.00 0.00 0.00 0.00 0.00 0.00 0.00 0.00 0.00 0.00 0.00 0.00 0.00 0.00 0.00 0.00 0.01 0.02 0.01 0.01 0.01 0.02 0.03 0.03 0.04 0.05 0.05 0.05 0.05 0.05 0.06 0.06 0.05 0.05 0.05 0.05 0.07 0.10 0.13 0.11 0.10 0.07 0.07
0.00 0.00 0.00 0.00 0.00 0.00 0.00 0.00 0.00 0.00 0.00 0.00 0.00 0.00 0.00 0.00 0.01 0.01 0.01 0.02 0.02 0.02 0.03 0.04 0.04 0.05 0.07 0.05 0.04 0.05 0.06 0.07 0.07 0.06 0.05 0.05 0.05 0.05 0.08 0.09 0.09 0.07 0.05
0.00 0.00 0.00 0.00 0.00 0.00 0.00 0.00 0.00 0.00 0.00 0.00 0.00 0.00 0.01 0.01 0.00 0.00 0.01 0.02 0.03 0.03 0.04 0.03 0.03 0.04 0.05 0.05 0.04 0.03 0.05 0.06 0.07 0.07 0.05 0.06 0.05 0.05 0.04 0.05 0.06 0.06 0.06
0.00 0.00 0.00 0.00 0.00 0.00 0.00 0.00 0.00 0.00 0.00 0.00 0.00 0.00 0.00 0.00 0.00 0.00 0.01 0.02 0.03 0.03 0.02 0.03 0.03 0.03 0.04 0.06 0.06 0.04 0.05 0.05 0.06 0.06 0.06 0.05 0.05 0.06 0.05 0.06 0.05 0.06 0.05
0.00 0.00 0.00 0.00 0.00 0.00 0.00 0.00 0.00 0.00 0.00 0.00 0.00 0.00 0.00 0.00 0.01 0.01 0.02 0.02 0.02 0.02 0.02 0.02 0.04 0.04 0.05 0.06 0.08 0.06 0.05 0.05 0.05 0.04 0.06 0.05 0.06 0.05 0.05 0.05 0.07 0.06 0.05
0.00 0.00 0.00 0.00 0.00 0.00 0.00 0.00 0.00 0.00 0.00 0.00 0.00 0.00 0.00 0.01 0.01 0.01 0.02 0.02 0.02 0.01 0.01 0.02 0.02 0.04 0.04 0.04 0.05 0.05 0.05 0.06 0.05 0.04 0.04 0.04 0.05 0.04 0.04 0.04 0.06 0.07 0.06
0.00 0.00 0.00 0.00 0.00 0.00 0.00 0.00 0.00 0.00 0.00 0.00 0.00 0.00 0.00 0.01 0.01 0.01 0.01 0.01 0.02 0.03 0.03 0.03 0.02 0.03 0.05 0.03 0.04 0.05 0.06 0.06 0.05 0.04 0.04 0.04 0.04 0.04 0.03 0.03 0.04 0.07 0.07
0.00 0.00 0.00 0.00 0.00 0.00 0.00 0.00 0.00 0.00 0.00 0.00 0.00 0.00 0.00 0.01 0.00 0.01 0.02 0.01 0.01 0.02 0.03 0.04 0.04 0.02 0.04 0.05 0.06 0.06 0.06 0.07 0.07 0.05 0.04 0.03 0.03 0.04 0.04 0.03 0.04 0.05 0.06
0.00 0.00 0.00 0.00 0.00 0.00 0.00 0.00 0.00 0.00 0.00 0.00 0.00 0.00 0.00 0.00 0.00 0.01 0.03 0.01 0.01 0.02 0.02 0.03 0.04 0.03 0.04 0.04 0.05 0.05 0.05 0.06 0.06 0.05 0.04 0.03 0.02 0.03 0.03 0.04 0.04 0.04 0.04
0.00 0.00 0.00 0.00 0.00 0.00 0.00 0.00 0.00 0.00 0.00 0.00 0.00 0.00 0.00 0.00 0.00 0.01 0.03 0.02 0.01 0.01 0.01 0.01 0.03 0.03 0.02 0.04 0.06 0.07 0.06 0.06 0.06 0.05 0.05 0.05 0.04 0.04 0.04 0.04 0.04 0.04 0.04
0.00 0.00 0.00 0.00 0.00 0.00 0.00 0.00 0.00 0.00 0.00 0.00 0.00 0.00 0.00 0.00 0.00 0.01 0.03 0.03 0.01 0.01 0.01 0.01 0.01 0.01 0.02 0.03 0.04 0.05 0.05 0.05 0.05 0.04 0.04 0.05 0.05 0.05 0.05 0.04 0.04 0.04 0.05
0.00 0.00 0.00 0.00 0.00 0.00 0.00 0.00 0.00 0.00 0.00 0.00 0.00 0.00 0.00 0.00 0.00 0.01 0.02 0.02 0.02 0.01 0.01 0.01 0.01 0.02 0.02 0.03 0.03 0.03 0.05 0.04 0.04 0.03 0.02 0.03 0.03 0.02 0.04 0.03 0.04 0.04 0.04
0.00 0.00 0.00 0.00 0.00 0.00 0.00 0.00 0.00 0.00 0.00 0.00 0.00 0.00 0.00 0.00 0.00 0.00 0.01 0.01 0.02 0.02 0.01 0.01 0.01 0.01 0.00 0.01 0.01 0.02 0.03 0.03 0.02 0.02 0.02 0.02 0.02 0.01 0.02 0.02 0.02 0.03 0.04
0.00 0.00 0.00 0.00 0.00 0.00 0.00 0.00 0.00 0.00 0.00 0.00 0.00 0.00 0.00 0.00 0.00 0.00 0.01 0.01 0.01 0.01 0.01 0.00 0.00 0.00 0.00 0.00 0.00 0.01 0.03 0.03 0.02 0.02 0.03 0.03 0.02 0.02 0.02 0.02 0.02 0.02 0.03
0.00 0.00 0.00 0.00 0.00 0.00 0.00 0.00 0.00 0.00 0.00 0.00 0.00 0.00 0.00 0.00 0.00 0.00 0.00 0.01 0.01 0.01 0.01 0.00 0.00 0.00 0.00 0.00 0.00 0.01 0.03 0.03 0.02 0.02 0.03 0.04 0.04 0.04 0.04 0.03 0.03 0.02 0.02
0.00 0.00 0.00 0.00 0.00 0.00 0.00 0.00 0.00 0.00 0.00 0.00 0.00 0.00 0.00 0.00 0.00 0.00 0.00 0.00 0.00 0.00 0.01 0.01 0.00 0.00 0.00 0.00 0.01 0.03 0.04 0.04 0.03 0.02 0.02 0.03 0.04 0.04 0.04 0.05 0.04 0.04 0.04
0.00 0.00 0.00 0.00 0.00 0.00 0.00 0.00 0.00 0.00 0.00 0.00 0.00 0.00 0.00 0.00 0.00 0.00 0.00 0.00 0.00 0.00 0.00 0.00 0.00 0.00 0.00 0.00 0.00 0.01 0.03 0.03 0.03 0.02 0.01 0.01 0.01 0.01 0.02 0.05 0.06 0.04 0.04
0.00 0.00 0.00 0.00 0.00 0.00 0.00 0.00 0.00 0.00 0.00 0.00 0.00 0.00 0.00 0.00 0.00 0.00 0.00 0.00 0.00 0.00 0.00 0.00 0.00 0.00 0.00 0.00 0.00 0.00 0.01 0.01 0.02 0.02 0.02 0.01 0.00 0.00 0.00 0.02 0.04 0.04 0.04
0.00 0.00 0.00 0.00 0.00 0.00 0.00 0.00 0.00 0.00 0.00 0.00 0.00 0.00 0.00 0.00 0.00 0.00 0.00 0.00 0.00 0.00 0.00 0.00 0.00 0.00 0.00 0.00 0.00 0.00 0.00 0.00 0.01 0.01 0.01 0.01 0.00 0.00 0.00 0.00 0.01 0.01 0.03
0.00 0.00 0.00 0.00 0.00 0.00 0.00 0.00 0.00 0.00 0.00 0.00 0.00 0.00 0.00 0.00 0.00 0.00 0.00 0.00 0.00 0.00 0.00 0.00 0.00 0.00 0.00 0.00 0.00 0.00 0.00 0.00 0.00 0.00 0.00 0.00 0.00 0.00 0.00 0.00 0.00 0.00 0.01
0.00 0.00 0.00 0.00 0.00 0.00 0.00 0.00 0.00 0.00 0.00 0.00 0.00 0.00 0.00 0.00 0.00 0.00 0.00 0.00 0.00 0.00 0.00 0.00 0.00 0.00 0.00 0.00 0.00 0.00 0.00 0.00 0.00 0.00 0.00 0.00 0.00 0.00 0.00 0.01 0.01 0.01 0.02
0.00 0.00 0.00 0.00 0.00 0.00 0.00 0.00 0.00 0.00 0.00 0.00 0.00 0.00 0.00 0.00 0.00 0.00 0.00 0.00 0.00 0.00 0.00 0.00 0.00 0.00 0.00 0.00 0.00 0.00 0.00 0.00 0.00 0.00 0.01 0.01 0.01 0.01 0.01 0.01 0.01 0.01 0.01
0.00 0.00 0.00 0.00 0.00 0.00 0.00 0.00 0.00 0.00 0.00 0.00 0.00 0.00 0.00 0.00 0.00 0.00 0.00 0.00 0.00 0.00 0.00 0.00 0.00 0.00 0.00 0.00 0.00 0.00 0.00 0.00 0.00 0.00 0.00 0.01 0.00 0.00 0.00 0.01 0.01 0.01 0.01
MSLP
1008.06 1008.50 1008.95 1009.36 1009.73 1010.03 1010.29 1010.51 1010.74 1010.96 1011.19 1011.41 1011.59 1011.72 1011.78 1011.77 1011.70 1011.58 1011.46 1011.36 1011.28 1011.24 1011.22 1011.20 1011.16 1011.08 1010.96 1010.80 1010.63 1010.48 1010.37 1010.35 1010.39 1010.51 1010.66 1010.80 1010.90 1010.91 1010.82 1010.63 1010.37 1010.10 1009.85
1007.92 1008.39 1008.87 1009.32 1009.70 1010.01 1010.28 1010.53 1010.78 1011.04 1011.31 1011.57 1011.79 1011.95 1012.01 1011.99 1011.89 1011.75 1011.59 1011.46 1011.38 1011.34 1011.35 1011.36 1011.36 1011.32 1011.22 1011.06 1010.88 1010.69 1010.55 1010.48 1010.50 1010.59 1010.73 1010.87 1010.98 1011.00 1010.91 1010.71 1010.44 1010.12 1009.83
1007.77 1008.28 1008.79 1009.26 1009.66 1009.98 1010.27 1010.53 1010.80 1011.09 1011.40 1011.70 1011.96 1012.15 1012.24 1012.22 1012.11 1011.95 1011.77 1011.62 1011.52 1011.48 1011.49 1011.53 1011.56 1011.54 1011.46 1011.31 1011.12 1010.93 1010.77 1010.67 1010.66 1010.73 1010.86 1011.01 1011.12 1011.16 1011.08 1010.89 1010.61 1010.28 1009.95
1007.60 1008.15 1008.70 1009.20 1009.61 1009.95 1010.24 1010.51 1010.79 1011.10 1011.44 1011.77 1012.07 1012.29 1012.41 1012.41 1012.32 1012.15 1011.97 1011.80 1011.69 1011.65 1011.66 1011.70 1011.74 1011.73 1011.67 1011.54 1011.36 1011.16 1010.99 1010.88 1010.86 1010.92 1011.05 1011.19 1011.32 1011.37 1011.31 1011.14 1010.87 1010.54 1010.19
1007.43 1008.01 1008.60 1009.13 1009.56 1009.91 1010.20 1010.47 1010.74 1011.05 1011.40 1011.75 1012.08 1012.33 1012.49 1012.53 1012.47 1012.33 1012.15 1011.99 1011.87 1011.81 1011.81 1011.85 1011.89 1011.89 1011.84 1011.73 1011.56 1011.38 1011.22 1011.11 1011.08 1011.14 1011.26 1011.40 1011.54 1011.61 1011.57 1011.43 1011.18 1010.87 1010.52
1007.26 1007.87 1008.50 1009.06 1009.52 1009.88 1010.16 1010.41 1010.67 1010.96 1011.29 1011.64 1011.98 1012.26 1012.46 1012.55 1012.53 1012.42 1012.28 1012.13 1012.02 1011.95 1011.94 1011.97 1012.00 1012.00 1011.96 1011.87 1011.72 1011.56 1011.42 1011.32 1011.30 1011.35 1011.47 1011.61 1011.75 1011.84 1011.83 1011.72 1011.50 1011.21 1010.88
1007.09 1007.74 1008.39 1008.99 1009.47 1009.84 1010.12 1010.34 1010.56 1010.81 1011.11 1011.44 1011.77 1012.07 1012.30 1012.43 1012.47 1012.42 1012.31 1012.20 1012.09 1012.03 1012.01 1012.03 1012.05 1012.06 1012.03 1011.95 1011.83 1011.70 1011.57 1011.49 1011.48 1011.53 1011.65 1011.79 1011.93 1012.03 1012.05 1011.97 1011.80 1011.54 1011.24
1006.93 1007.59 1008.27 1008.90 1009.40 1009.78 1010.06 1010.26 1010.44 1010.64 1010.89 1011.18 1011.49 1011.79 1012.04 1012.21 1012.29 1012.30 1012.25 1012.17 1012.09 1012.04 1012.03 1012.03 1012.05 1012.06 1012.04 1011.98 1011.89 1011.78 1011.69 1011.63 1011.62 1011.68 1011.79 1011.93 1012.07 1012.18 1012.22 1012.18 1012.05 1011.84 1011.57
1006.76 1007.42 1008.11 1008.76 1009.29 1009.69 1009.96 1010.14 1010.29 1010.45 1010.65 1010.89 1011.17 1011.45 1011.70 1011.90 1012.03 1012.09 1012.09 1012.06 1012.02 1011.99 1011.98 1012.00 1012.02 1012.03 1012.02 1011.98 1011.92 1011.84 1011.76 1011.72 1011.72 1011.78 1011.88 1012.02 1012.17 1012.29 1012.35 1012.35 1012.26 1012.09 1011.87
1006.54 1007.19 1007.88 1008.54 1009.09 1009.51 1009.79 1009.98 1010.11 1010.24 1010.39 1010.60 1010.84 1011.09 1011.34 1011.56 1011.72 1011.82 1011.87 1011.89 1011.89 1011.90 1011.91 1011.94 1011.98 1012.00 1012.01 1011.99 1011.94 1011.88 1011.83 1011.79 1011.80 1011.85 1011.95 1012.09 1012.23 1012.36 1012.45 1012.48 1012.43 1012.32 1012.14
1006.27 1006.87 1007.55 1008.20 1008.76 1009.20 1009.51 1009.72 1009.86 1009.99 1010.13 1010.31 1010.52 1010.76 1011.00 1011.22 1011.41 1011.54 1011.64 1011.70 1011.75 1011.79 1011.84 1011.90 1011.95 1012.00 1012.02 1012.02 1011.99 1011.94 1011.90 1011.87 1011.87 1011.92 1012.01 1012.14 1012.28 1012.42 1012.53 1012.59 1012.59 1012.53 1012.39
1005.92 1006.46 1007.09 1007.71 1008.28 1008.74 1009.08 1009.34 1009.52 1009.68 1009.84 1010.02 1010.24 1010.47 1010.70 1010.93 1011.13 1011.29 1011.42 1011.53 1011.62 1011.71 1011.79 1011.88 1011.97 1012.04 1012.08 1012.09 1012.07 1012.04 1011.99 1011.96 1011.95 1011.99 1012.07 1012.18 1012.32 1012.47 1012.60 1012.70 1012.74 1012.71 1012.63
1005.51 1005.96 1006.51 1007.08 1007.63 1008.10 1008.49 1008.80 1009.06 1009.28 1009.50 1009.72 1009.96 1010.20 1010.45 1010.68 1010.89 1011.07 1011.23 1011.38 1011.51 1011.65 1011.78 1011.91 1012.02 1012.12 1012.18 1012.21 1012.20 1012.16 1012.11 1012.06 1012.04 1012.06 1012.12 1012.22 1012.36 1012.51 1012.66 1012.78 1012.86 1012.88 1012.84
1005.07 1005.40 1005.84 1006.33 1006.83 1007.30 1007.73 1008.11 1008.45 1008.77 1009.07 1009.36 1009.65 1009.94 1010.21 1010.46 1010.69 1010.89 1011.08 1011.25 1011.43 1011.60 1011.77 1011.94 1012.09 1012.21 1012.30 1012.33 1012.33 1012.29 1012.23 1012.16 1012.12 1012.12 1012.16 1012.25 1012.38 1012.53 1012.70 1012.84 1012.95 1013.00 1012.99
1004.65 1004.83 1005.12 1005.50 1005.93 1006.38 1006.83 1007.28 1007.71 1008.13 1008.54 1008.93 1009.30 1009.64 1009.95 1010.23 1010.48 1010.71 1010.92 1011.12 1011.33 1011.54 1011.75 1011.95 1012.13 1012.28 1012.38 1012.43 1012.43 1012.38 1012.31 1012.23 1012.17 1012.14 1012.17 1012.24 1012.36 1012.52 1012.69 1012.84 1012.97 1013.05 1013.08
1004.29 1004.30 1004.42 1004.66 1004.99 1005.39 1005.85 1006.34 1006.86 1007.38 1007.90 1008.40 1008.86 1009.28 1009.65 1009.97 1010.25 1010.50 1010.73 1010.95 1011.19 1011.42 1011.66 1011.89 1012.10 1012.27 1012.38 1012.44 1012.44 1012.40 1012.32 1012.23 1012.16 1012.12 1012.13 1012.19 1012.31 1012.45 1012.62 1012.79 1012.93 1013.03 1013.08
1004.04 1003.86 1003.81 1003.88 1004.09 1004.41 1004.84 1005.36 1005.94 1006.56 1007.18 1007.77 1008.33 1008.83 1009.26 1009.63 1009.94 1010.22 1010.47 1010.71 1010.96 1011.22 1011.47 1011.72 1011.95 1012.13 1012.26 1012.33 1012.34 1012.30 1012.23 1012.15 1012.07 1012.03 1012.04 1012.10 1012.20 1012.35 1012.51 1012.68 1012.82 1012.94 1013.00
1003.92 1003.56 1003.33 1003.23 1003.30 1003.53 1003.90 1004.41 1005.02 1005.70 1006.39 1007.07 1007.71 1008.28 1008.78 1009.20 1009.55 1009.85 1010.12 1010.38 1010.64 1010.90 1011.16 1011.42 1011.65 1011.85 1011.99 1012.08 1012.11 1012.09 1012.03 1011.97 1011.91 1011.89 1011.90 1011.97 1012.07 1012.21 1012.37 1012.54 1012.68 1012.79 1012.87
1003.94 1003.42 1003.02 1002.76 1002.68 1002.79 1003.09 1003.55 1004.16 1004.85 1005.59 1006.32 1007.02 1007.65 1008.20 1008.67 1009.06 1009.39 1009.68 1009.95 1010.21 1010.48 1010.74 1011.00 1011.23 1011.43 1011.59 1011.69 1011.75 1011.76 1011.74 1011.72 1011.70 1011.71 1011.75 1011.83 1011.95 1012.09 1012.24 1012.39 1012.53 1012.63 1012.71
1004.07 1003.43 1002.88 1002.48 1002.26 1002.24 1002.44 1002.83 1003.38 1004.06 1004.79 1005.55 1006.28 1006.95 1007.54 1008.05 1008.48 1008.84 1009.16 1009.44 1009.72 1009.98 1010.24 1010.49 1010.73 1010.93 1011.10 1011.22 1011.31 1011.36 1011.39 1011.42 1011.46 1011.52 1011.60 1011.72 1011.85 1012.00 1012.15 1012.29 1012.41 1012.51 1012.57
1004.28 1003.55 1002.89 1002.37 1002.02 1001.88 1001.96 1002.25 1002.72 1003.33 1004.02 1004.76 1005.49 1006.18 1006.80 1007.35 1007.82 1008.23 1008.58 1008.89 1009.18 1009.46 1009.72 1009.96 1010.19 1010.40 1010.57 1010.72 1010.84 1010.94 1011.03 1011.13 1011.23 1011.35 1011.49 1011.65 1011.81 1011.97 1012.13 1012.26 1012.36 1012.44 1012.49
1004.54 1003.75 1003.02 1002.40 1001.94 1001.68 1001.63 1001.79 1002.15 1002.66 1003.28 1003.96 1004.67 1005.36 1006.00 1006.59 1007.11 1007.57 1007.97 1008.33 1008.65 1008.95 1009.22 1009.47 1009.69 1009.90 1010.08 1010.25 1010.40 1010.55 1010.70 1010.87 1011.04 1011.23 1011.43 1011.64 1011.83 1012.02 1012.17 1012.30 1012.39 1012.46 1012.50
1004.79 1003.98 1003.21 1002.52 1001.97 1001.59 1001.41 1001.43 1001.65 1002.03 1002.54 1003.15 1003.80 1004.47 1005.14 1005.76 1006.34 1006.87 1007.34 1007.77 1008.15 1008.48 1008.78 1009.05 1009.28 1009.49 1009.68 1009.86 1010.04 1010.23 1010.44 1010.66 1010.90 1011.16 1011.42 1011.67 1011.91 1012.11 1012.28 1012.41 1012.50 1012.56 1012.59
1005.02 1004.21 1003.42 1002.68 1002.05 1001.56 1001.25 1001.12 1001.18 1001.42 1001.80 1002.30 1002.89 1003.54 1004.21 1004.88 1005.53 1006.14 1006.71 1007.23 1007.69 1008.09 1008.43 1008.73 1008.98 1009.19 1009.39 1009.59 1009.78 1010.00 1010.24 1010.52 1010.81 1011.12 1011.43 1011.73 1012.01 1012.25 1012.43 1012.57 1012.67 1012.72 1012.75
1005.19 1004.41 1003.61 1002.84 1002.14 1001.55 1001.11 1000.83 1000.73 1000.80 1001.04 1001.43 1001.94 1002.55 1003.22 1003.94 1004.67 1005.38 1006.06 1006.69 1007.25 1007.74 1008.16 1008.50 1008.78 1009.02 1009.23 1009.43 1009.63 1009.86 1010.13 1010.42 1010.75 1011.11 1011.46 1011.80 1012.11 1012.38 1012.59 1012.75 1012.86 1012.93 1012.98
1005.31 1004.56 1003.76 1002.97 1002.21 1001.53 1000.96 1000.53 1000.27 1000.19 1000.28 1000.54 1000.96 1001.52 1002.20 1002.95 1003.76 1004.58 1005.38 1006.13 1006.82 1007.42 1007.92 1008.34 1008.66 1008.93 1009.15 1009.35 1009.56 1009.79 1010.06 1010.37 1010.72 1011.09 1011.47 1011.85 1012.19 1012.49 1012.74 1012.93 1013.07 1013.17 1013.24
Thickness
5779 5777 5773 5768 5764 5760 5755 5750 5746 5742 5737 5730 5725 5719 5715 5713 5710 5706 5702 5698 5695 5692 5689 5686 5684 5683 5681 5681 5683 5684 5685 5688 5693 5694 5697 5704 5711 5715 5719 5723 5727 5731 5736
5775 5771 5769 5765 5761 5757 5753 5749 5745 5741 5736 5729 5725 5720 5715 5712 5709 5705 5701 5697 5693 5690 5687 5683 5681 5680 5679 5678 5679 5680 5680 5683 5687 5687 5687 5689 5695 5704 5713 5717 5721 5725 5730
5772 5768 5766 5763 5759 5755 5751 5749 5744 5740 5735 5730 5725 5720 5715 5710 5706 5702 5698 5696 5692 5689 5685 5682 5680 5679 5677 5676 5676 5677 5676 5676 5681 5685 5683 5681 5682 5691 5702 5710 5714 5718 5722
5774 5770 5766 5762 5758 5755 5752 5748 5744 5739 5734 5729 5722 5716 5709 5704 5703 5700 5697 5695 5692 5688 5684 5682 5680 5678 5677 5675 5675 5676 5676 5675 5674 5679 5683 5685 5687 5685 5688 5698 5706 5712 5716
5775 5770 5766 5762 5759 5756 5751 5747 5742 5737 5733 5728 5722 5716 5710 5707 5704 5701 5697 5693 5691 5688 5685 5682 5680 5678 5676 5675 5674 5674 5674 5674 5673 5674 5677 5680 5684 5686 5685 5685 5694 5702 5709
5774 5770 5767 5762 5758 5753 5749 5745 5739 5735 5731 5727 5722 5717 5711 5707 5703 5699 5695 5692 5690 5687 5685 5682 5680 5677 5676 5675 5673 5673 5673 5673 5673 5673 5674 5675 5676 5678 5681 5682 5686 5692 5700
5771 5767 5762 5757 5753 5749 5746 5742 5738 5732 5730 5726 5723 5719 5713 5708 5703 5699 5695 5691 5689 5686 5684 5682 5680 5677 5676 5675 5674 5672 5672 5672 5671 5672 5672 5674 5676 5679 5680 5680 5682 5686 5694
5770 5766 5762 5757 5753 5749 5745 5741 5737 5732 5729 5725 5722 5719 5715 5709 5705 5701 5697 5693 5690 5687 5686 5683 5681 5679 5677 5676 5674 5672 5671 5672 5671 5672 5672 5672 5674 5677 5678 5679 5678 5679 5685
5769 5765 5762 5758 5753 5749 5745 5742 5737 5733 5729 5726 5722 5719 5715 5710 5706 5703 5699 5695 5693 5690 5687 5684 5681 5679 5677 5676 5674 5671 5670 5670 5670 5670 5671 5671 5673 5675 5677 5679 5679 5677 5675
5768 5766 5762 5758 5755 5751 5747 5743 5739 5734 5730 5726 5723 5719 5715 5711 5707 5703 5699 5696 5694 5691 5688 5684 5682 5679 5677 5675 5673 5671 5670 5669 5669 5669 5669 5670 5671 5673 5675 5676 5678 5678 5676
5767 5765 5762 5759 5756 5752 5747 5743 5739 5735 5730 5727 5723 5719 5715 5712 5708 5704 5701 5698 5695 5692 5689 5686 5682 5679 5677 5675 5672 5670 5669 5668 5668 5669 5669 5669 5670 5670 5672 5674 5675 5676 5676
5768 5765 5762 5759 5755 5751 5748 5744 5740 5736 5731 5728 5724 5720 5716 5712 5708 5705 5702 5699 5696 5693 5690 5687 5683 5680 5677 5675 5672 5670 5669 5668 5667 5667 5667 5667 5669 5669 5670 5671 5672 5673 5675
5768 5764 5760 5757 5754 5751 5748 5745 5741 5737 5732 5728 5723 5719 5716 5712 5708 5705 5702 5700 5697 5694 5691 5688 5683 5680 5678 5675 5673 5671 5669 5669 5668 5667 5666 5666 5667 5667 5668 5669 5670 5671 5674
5766 5763 5758 5756 5754 5752 5749 5746 5742 5738 5734 5728 5723 5719 5716 5713 5709 5706 5703 5700 5697 5694 5691 5688 5684 5681 5678 5675 5673 5671 5670 5669 5668 5668 5667 5666 5665 5665 5666 5667 5667 5669 5669
5765 5763 5758 5757 5754 5751 5749 5747 5743 5739 5735 5729 5723 5720 5717 5714 5710 5706 5702 5699 5696 5694 5691 5687 5684 5681 5678 5675 5672 5671 5671 5669 5668 5667 5666 5665 5665 5665 5665 5665 5664 5665 5665
5765 5764 5762 5759 5755 5752 5749 5747 5743 5740 5736 5730 5724 5721 5717 5713 5708 5705 5702 5698 5695 5693 5690 5686 5683 5680 5677 5675 5673 5671 5669 5669 5667 5666 5665 5665 5664 5664 5664 5664 5664 5663 5661
5764 5763 5762 5760 5758 5756 5753 5747 5744 5741 5736 5730 5725 5720 5716 5711 5708 5705 5701 5697 5694 5691 5688 5685 5683 5679 5676 5674 5672 5671 5668 5668 5667 5666 5664 5664 5665 5663 5661 5661 5662 5661 5661
5763 5762 5762 5761 5761 5760 5756 5751 5746 5741 5735 5730 5725 5720 5715 5711 5707 5703 5699 5696 5693 5690 5687 5684 5682 5679 5676 5674 5672 5671 5669 5668 5667 5666 5665 5663 5662 5661 5659 5659 5658 5658 5659
5764 5763 5763 5762 5761 5759 5756 5751 5744 5739 5734 5728 5724 5720 5715 5710 5705 5701 5698 5695 5692 5689 5687 5684 5682 5679 5676 5674 5672 5670 5668 5667 5666 5666 5664 5662 5660 5659 5658 5656 5655 5654 5655
5762 5761 5761 5760 5758 5757 5754 5747 5741 5736 5731 5728 5724 5721 5716 5710 5705 5701 5698 5695 5692 5688 5686 5683 5682 5679 5675 5673 5671 5669 5666 5665 5664 5663 5662 5660 5657 5656 5655 5653 5651 5649 5650
5756 5756 5755 5753 5752 5752 5749 5742 5739 5735 5732 5728 5723 5719 5714 5709 5705 5701 5698 5694 5691 5687 5684 5682 5680 5678 5675 5672 5669 5667 5664 5661 5661 5659 5657 5655 5654 5653 5651 5650 5647 5647 5647
5748 5748 5746 5745 5747 5747 5743 5737 5734 5734 5731 5725 5719 5715 5712 5708 5705 5699 5695 5692 5689 5685 5682 5679 5677 5675 5673 5669 5666 5664 5661 5659 5656 5655 5653 5651 5650 5648 5647 5645 5645 5645 5644
5739 5740 5738 5737 5739 5740 5737 5732 5731 5730 5726 5720 5714 5711 5708 5705 5702 5696 5692 5688 5685 5682 5679 5676 5673 5671 5670 5666 5664 5660 5658 5656 5652 5650 5649 5647 5645 5644 5642 5641 5640 5639 5638
5730 5731 5729 5728 5729 5731 5731 5729 5728 5725 5720 5714 5710 5707 5703 5700 5697 5692 5688 5684 5680 5677 5675 5672 5669 5667 5664 5660 5657 5655 5653 5651 5648 5645 5644 5643 5641 5638 5636 5635 5634 5633 5631
5722 5722 5721 5720 5721 5723 5723 5723 5721 5719 5713 5709 5705 5702 5699 5695 5690 5685 5679 5677 5672 5671 5669 5666 5664 5661 5656 5652 5651 5650 5648 5645 5643 5640 5639 5636 5634 5631 5629 5627 5626 5625 5624
5713 5713 5713 5712 5714 5715 5715 5716 5714 5712 5708 5704 5701 5697 5694 5689 5684 5677 5669 5665 5665 5663 5662 5660 5657 5653 5650 5647 5645 5643 5642 5640 5638 5635 5631 5627 5625 5623 5620 5618 5617 5616 5614